Location: Unspecified
(41.5000°N, 0.0000°E)
Time: 23:46:25
(UTC+00:00)

deb Explorer IX - Pass Details

Date: 28 June 2019
Orbit: 544 x 1107 km, 38.8° (Epoch: 12 October)

Event Time Altitude Azimuth Distance (km) Brightness Sun altitude
Rises 11:02:27 0° 231° (SW) 3,425 ? 67.8°
Reaches altitude 10° 11:04:58 10° 224° (SW) 2,575 ? 68.1°
Maximum altitude 11:10:50 43° 155° (SSE) 1,370 ? 68.7°
Drops below altitude 10° 11:17:24 10° 87° (E) 2,893 ? 69.4°
Sets 11:20:23 0° 81° (E) 3,891 ? 69.7°
